This is the latest recevied weather packets stored in our database for station/object VE1DX. If no packets are shown the sender has not sent any weather packets the latest 10 day(s).
| Time | Temp. | Humidity | Pressure | Rain* | Wind** | Luminosity | Snow |
|---|---|---|---|---|---|---|---|
| 1777922717 | 16.67° C | 32% | 1003.6 hPa | 0 mm | - | - | - |
| 1777922417 | 16.67° C | 33% | 1003.6 hPa | 0 mm | - | - | - |
| 1777922117 | 16.67° C | 33% | 1003.7 hPa | 0 mm | - | - | - |
| 1777921817 | 16.67° C | 33% | 1003.5 hPa | 0 mm | - | - | - |
| 1777921517 | 16.67° C | 32% | 1003.6 hPa | 0 mm | - | - | - |
| 1777920917 | 16.11° C | 31% | 1003.6 hPa | 0 mm | - | - | - |
| 1777920017 | 16.11° C | 32% | 1003.6 hPa | 0 mm | - | - | - |
| 1777919717 | 15.56° C | 32% | 1003.8 hPa | 0 mm | - | - | - |
| 1777919417 | 15.56° C | 31% | 1003.8 hPa | 0 mm | - | - | - |
| 1777918517 | 15.56° C | 32% | 1003.8 hPa | 0 mm | - | - | - |
| 1777918217 | 15.56° C | 32% | 1003.7 hPa | 0 mm | - | - | - |
| 1777917317 | 15° C | 33% | 1004 hPa | 0 mm | - | - | - |
| 1777916717 | 14.44° C | 31% | 1004.1 hPa | 0 mm | - | - | - |
| 1777916417 | 14.44° C | 33% | 1004.2 hPa | 0 mm | - | - | - |
| 1777916117 | 14.44° C | 32% | 1004.1 hPa | 0 mm | - | - | - |
| 1777914317 | 14.44° C | 34% | 1003.8 hPa | 0 mm | - | - | - |
| 1777913117 | 13.33° C | 33% | 1003.7 hPa | 0 mm | - | - | - |
| 1777911617 | 12.78° C | 36% | 1003.7 hPa | 0 mm | - | - | - |
| 1777909517 | 11.67° C | 42% | 1004 hPa | 0 mm | - | - | - |
| 1777908917 | 11.67° C | 46% | 1003.7 hPa | 0 mm | - | - | - |
| 1777908617 | 11.67° C | 45% | 1003.7 hPa | 0 mm | - | - | - |
| 1777908317 | 11.67° C | 47% | 1003.8 hPa | 0 mm | - | - | - |
| 1777907417 | 11.67° C | 54% | 1003.5 hPa | 0 mm | - | - | - |
| 1777907117 | 11.67° C | 54% | 1003.4 hPa | 0 mm | - | - | - |
| 1777906217 | 11.11° C | 55% | 1003.6 hPa | 0 mm | - | - | - |
* Rain latest hour (hover to see other rain measurements)
** Current wind speed in m/s (hover to see current wind gust speed)